Date String (YYYY-MM-DD hh:mm:ss) UTC,Instrument flags,Ambient pressure (hPa),Sample flow (lpm),Bypass flow (lpm),Sample temperature (°C),Ambient temperature (°C),ASC tube jacket temperature (°C),LED temperature (°C),Box temperature (°C),Sample RH (%),Span deviation,Mass concentration (μg/m³),Mass concentration (μg/m³),Mass concentration (μg/m³)
DateTimeUTC,F1_M11,P_M11,Q1_M11,Q2_M11,T1_M11,T2_M11,T3_M11,T4_M11,T5_M11,U1_M11,ZSPAN_M11,X0_M11,X2_M11,X1_M11
2023-02-26 20:00:00,,0807.0,4.99,0.00,25.0,23.8,00.0,33.6,26.9,16.3,0000.0,0013.28,0008.87,0007.96
2023-02-26 20:01:00,,0807.0,5.01,0.00,25.0,23.8,00.0,33.6,26.9,16.3,0000.0,0014.43,0008.93,0007.97
2023-02-26 20:02:00,,0807.0,5.00,0.00,25.0,23.8,00.0,33.6,26.9,16.1,0000.0,0014.91,0008.95,0007.97
2023-02-26 20:03:00,,0806.8,5.00,0.00,25.0,23.8,00.0,33.6,27.0,15.8,0000.0,0015.09,0008.95,0007.98
2023-02-26 20:04:00,,0806.8,5.00,0.00,25.0,23.9,00.0,33.6,27.0,16.1,0000.0,0015.53,0008.97,0007.98
2023-02-26 20:05:00,,0806.8,5.01,0.00,25.1,23.9,00.0,33.6,27.0,15.8,0000.0,0015.64,0008.97,0007.98
2023-02-26 20:06:00,,0806.8,5.00,0.00,25.1,23.9,00.0,33.6,27.0,16.0,0002.8,0016.21,0008.97,0007.99
2023-02-26 20:07:00,,0806.7,5.00,0.00,25.1,23.9,00.0,33.7,27.0,15.9,0003.4,0016.35,0008.95,0008.00
2023-02-26 20:08:00,,0806.7,5.00,0.00,25.1,23.9,00.0,33.7,27.0,15.7,0000.0,0016.11,0008.89,0007.99
2023-02-26 20:09:00,,0806.7,5.01,0.00,25.1,23.9,00.0,33.7,27.0,15.8,0000.0,0016.05,0008.88,0007.99
2023-02-26 20:10:00,,0806.7,5.00,0.00,25.1,23.9,00.0,33.7,27.0,15.9,0004.9,0016.05,0008.90,0008.02
2023-02-26 20:11:00,,0806.7,5.01,0.00,25.1,23.9,00.0,33.7,27.0,16.4,0004.6,0016.21,0008.93,0008.04
2023-02-26 20:12:00,,0806.7,5.00,0.00,25.1,23.9,00.0,33.7,27.0,16.8,0004.9,0015.07,0008.91,0008.07
2023-02-26 20:13:00,,0806.7,5.00,0.00,25.1,23.9,00.0,33.7,27.0,16.9,0004.5,0015.05,0008.97,0008.12
2023-02-26 20:14:00,,0806.7,5.00,0.00,25.1,23.9,00.0,33.7,27.0,16.7,0004.1,0014.62,0009.00,0008.19
2023-02-26 20:15:00,,0806.7,5.00,0.00,25.1,23.9,00.0,33.7,27.0,17.0,0002.6,0014.19,0009.04,0008.26
2023-02-26 20:16:00,,0806.7,5.00,0.00,25.2,23.9,00.0,33.7,27.1,17.1,0002.7,0013.94,0009.06,0008.30
2023-02-26 20:17:00,,0806.7,5.00,0.00,25.2,23.9,00.0,33.7,27.1,17.4,0003.2,0013.56,0009.15,0008.36
2023-02-26 20:18:00,,0806.6,5.00,0.00,25.2,23.9,00.0,33.8,27.1,16.9,0002.6,0013.56,0009.25,0008.43
2023-02-26 20:19:00,,0806.6,5.00,0.00,25.2,24.0,00.0,33.8,27.1,17.0,0002.3,0014.10,0009.43,0008.51
2023-02-26 20:20:00,,0806.6,4.99,0.00,25.2,24.0,00.0,33.8,27.1,17.0,0002.1,0015.14,0009.53,0008.58
2023-02-26 20:21:00,,0806.6,5.00,0.00,25.2,24.0,00.0,33.8,27.1,16.9,0003.0,0015.43,0009.57,0008.61
2023-02-26 20:22:00,,0806.6,5.01,0.00,25.2,24.0,00.0,33.8,27.1,16.7,0003.7,0015.32,0009.60,0008.66
2023-02-26 20:23:00,,0806.5,5.00,0.00,25.2,24.0,00.0,33.8,27.1,16.7,0003.9,0015.78,0009.70,0008.71
2023-02-26 20:24:00,,0806.6,5.00,0.00,25.2,24.0,00.0,33.8,27.1,16.8,0003.1,0015.43,0009.71,0008.73
2023-02-26 20:25:00,,0806.6,5.00,0.00,25.2,24.0,00.0,33.8,27.1,16.9,0003.4,0015.43,0009.72,0008.74
2023-02-26 20:26:00,,0806.7,5.01,0.00,25.2,24.0,00.0,33.8,27.1,16.6,0004.0,0015.46,0009.74,0008.75
2023-02-26 20:27:00,,0806.7,5.00,0.00,25.2,24.0,00.0,33.8,27.1,16.9,0003.7,0015.73,0009.82,0008.78
2023-02-26 20:28:00,,0806.6,5.00,0.00,25.3,24.0,00.0,33.9,27.1,17.0,0003.4,0015.96,0009.81,0008.80
2023-02-26 20:29:00,,0806.7,5.00,0.00,25.3,24.0,00.0,33.9,27.2,17.0,0003.4,0016.18,0009.84,0008.84
2023-02-26 20:30:00,,0806.7,5.00,0.00,25.3,24.0,00.0,33.9,27.2,16.7,0003.4,0015.83,0009.80,0008.85
2023-02-26 20:31:00,,0806.7,5.00,0.00,25.3,24.0,00.0,33.9,27.2,16.8,0002.9,0014.89,0009.79,0008.87
2023-02-26 20:32:00,,0806.7,5.00,0.00,25.3,24.0,00.0,33.9,27.2,16.5,0002.6,0014.64,0009.80,0008.90
2023-02-26 20:33:00,,0806.7,5.00,0.00,25.3,24.0,00.0,33.9,27.2,16.4,0002.7,0014.71,0009.83,0008.91
2023-02-26 20:34:00,,0806.7,5.01,0.00,25.3,24.0,00.0,33.9,27.2,16.3,0002.6,0014.64,0009.84,0008.94
2023-02-26 20:35:00,,0806.7,5.00,0.00,25.3,24.0,00.0,33.9,27.2,16.0,0002.9,0014.78,0009.87,0008.96
2023-02-26 20:36:00,,0806.8,4.99,0.00,25.3,24.1,00.0,33.9,27.2,16.2,0002.8,0014.81,0009.91,0008.99
2023-02-26 20:37:00,,0806.8,5.01,0.00,25.3,24.1,00.0,33.9,27.2,16.3,0003.5,0014.81,0009.92,0009.02
2023-02-26 20:38:00,,0806.8,5.01,0.00,25.3,24.1,00.0,33.9,27.2,16.3,0003.6,0014.68,0009.90,0009.05
2023-02-26 20:39:00,,0806.8,5.01,0.00,25.4,24.2,00.0,33.9,27.3,16.2,0003.6,0014.34,0009.91,0009.06
2023-02-26 20:40:00,,0806.7,4.99,0.00,25.4,24.2,00.0,34.0,27.3,15.9,0003.8,0014.14,0009.91,0009.06
2023-02-26 20:41:00,,0806.7,4.99,0.00,25.4,24.2,00.0,34.0,27.3,16.2,0004.0,0014.13,0009.90,0009.05
2023-02-26 20:42:00,,0806.7,5.00,0.00,25.4,24.2,00.0,34.0,27.3,16.5,0004.2,0014.57,0009.88,0009.04
2023-02-26 20:43:00,,0806.7,4.99,0.00,25.4,24.2,00.0,34.0,27.3,15.8,0004.3,0015.19,0009.88,0009.04
2023-02-26 20:44:00,,0806.7,5.00,0.00,25.4,24.2,00.0,34.0,27.3,15.9,0000.8,0015.33,0009.89,0009.03
2023-02-26 20:45:00,,0806.7,5.01,0.00,25.4,24.2,00.0,34.0,27.3,16.2,0000.0,0015.85,0009.85,0009.02
2023-02-26 20:46:00,,0806.7,5.01,0.00,25.4,24.2,00.0,34.0,27.3,16.2,0000.2,0015.79,0009.85,0009.02
2023-02-26 20:47:00,,0806.7,5.01,0.00,25.4,24.2,00.0,34.0,27.3,16.2,0003.5,0015.72,0009.84,0009.03
2023-02-26 20:48:00,,0806.6,5.00,0.00,25.4,24.2,00.0,34.0,27.3,16.2,0003.4,0015.87,0009.87,0009.04
2023-02-26 20:49:00,,0806.7,5.00,0.00,25.4,24.2,00.0,34.0,27.3,16.4,0003.6,0016.27,0009.91,0009.05
2023-02-26 20:50:00,,0806.7,5.00,0.00,25.5,24.2,00.0,34.1,27.3,16.1,0003.7,0016.50,0009.99,0009.07
2023-02-26 20:51:00,,0806.7,4.99,0.00,25.5,24.2,00.0,34.1,27.3,16.5,0003.5,0016.69,0010.05,0009.08
2023-02-26 20:52:00,,0806.8,5.00,0.00,25.5,24.2,00.0,34.1,27.3,16.3,0003.4,0016.95,0010.10,0009.11
2023-02-26 20:53:00,,0806.8,5.00,0.00,25.5,24.2,00.0,34.1,27.4,16.4,0002.4,0016.66,0010.14,0009.15
2023-02-26 20:54:00,,0806.8,5.00,0.00,25.5,24.2,00.0,34.1,27.4,16.4,0002.8,0016.12,0010.18,0009.18
2023-02-26 20:55:00,,0806.8,5.01,0.00,25.5,24.2,00.0,34.1,27.4,16.0,0002.9,0015.99,0010.21,0009.24
2023-02-26 20:56:00,,0806.8,5.00,0.00,25.5,24.3,00.0,34.1,27.4,16.0,0002.5,0015.43,0010.29,0009.28
2023-02-26 20:57:00,,0806.8,5.00,0.00,25.5,24.3,00.0,34.1,27.4,16.2,0002.4,0015.90,0010.29,0009.30
2023-02-26 20:58:00,,0806.8,5.00,0.00,25.5,24.3,00.0,34.1,27.4,16.4,0002.9,0015.94,0010.30,0009.31
2023-02-26 20:59:00,,0806.9,5.00,0.00,25.5,24.3,00.0,34.1,27.4,16.3,0003.0,0016.09,0010.32,0009.34
